Wind_Speed
20 20 21 21 22 22 21 20 20 21 21 21 22 22 22 22 22 22 22 22 22 21 21 20 20 20 19 19 18 18 18 17 16 16 15 15 14 14 13 13 13 12 13 13 13 13 13 12 13
21 21 21 22 23 22 21 21 21 22 22 22 22 22 23 23 23 23 22 22 22 22 22 22 21 20 20 20 20 19 19 19 18 18 17 16 16 15 15 14 14 14 14 14 14 14 14 14 14
21 22 22 23 24 23 23 23 23 23 23 24 23 23 23 23 23 23 23 23 23 23 22 22 22 21 21 20 21 21 21 21 20 19 18 18 18 17 17 16 16 16 16 16 16 16 16 16 15
21 22 23 24 24 23 24 24 24 24 25 26 25 24 24 23 23 24 23 23 23 23 23 23 23 22 22 22 22 22 22 22 22 21 20 20 20 19 19 19 19 18 18 18 17 17 18 18 18
22 23 24 24 24 24 24 25 26 26 26 27 27 27 26 25 24 24 24 24 24 24 24 24 23 23 23 23 23 23 23 23 23 23 22 22 22 22 21 21 21 21 20 20 19 19 19 19 20
23 24 25 25 25 25 26 27 28 28 29 28 28 28 27 26 26 26 25 25 25 25 25 24 24 24 24 25 24 25 25 24 24 24 24 24 24 23 23 23 23 23 22 22 22 21 21 21 21
24 25 26 25 25 26 26 27 28 28 29 30 30 29 28 28 28 27 27 26 26 26 27 27 26 26 26 26 26 26 26 26 26 26 25 26 26 25 24 25 25 25 25 24 24 24 24 23 23
26 27 27 25 25 25 26 27 28 28 29 29 30 30 29 29 29 29 28 28 27 28 29 28 28 28 28 28 28 28 27 27 27 27 27 26 26 26 26 26 26 26 26 26 26 26 26 26 26
26 27 26 25 25 25 26 28 28 29 29 29 30 30 30 29 29 29 29 29 29 29 29 29 30 30 30 30 29 29 29 29 29 28 29 29 28 28 27 27 27 27 28 27 27 27 27 27 27
27 27 26 25 26 27 28 28 29 29 29 29 29 29 30 30 30 29 29 29 30 30 31 31 30 31 31 31 30 31 31 31 31 31 30 30 30 30 30 29 29 29 29 29 29 29 30 29 29
28 28 27 27 27 28 29 30 30 29 29 29 29 29 29 30 30 30 30 30 30 31 31 32 32 32 32 33 33 33 33 33 33 33 33 32 32 32 31 31 31 31 31 30 31 30 31 31 31
27 27 27 27 28 28 29 29 30 29 29 29 30 30 30 30 31 31 31 31 31 31 31 32 33 33 33 33 34 34 34 34 34 34 34 35 35 34 34 33 33 33 32 32 32 32 33 33 33
27 27 27 27 27 28 29 29 29 29 30 29 29 30 31 31 31 31 32 32 33 32 33 33 34 34 33 33 33 34 34 34 34 35 35 36 37 37 37 36 35 34 34 34 34 34 34 35 35
26 26 26 26 27 28 28 28 29 29 30 30 30 30 31 31 31 31 32 33 34 34 34 35 35 36 36 35 34 35 36 35 35 35 36 37 37 38 38 37 37 36 36 36 36 35 36 36 37
26 26 26 26 26 27 28 28 28 28 28 29 30 30 31 31 31 32 33 34 34 34 35 35 36 37 37 37 36 36 37 37 37 36 37 38 38 39 39 39 38 38 38 38 37 37 37 38 39
27 27 27 26 27 27 28 28 27 27 27 27 28 29 30 31 32 33 34 34 35 35 36 35 36 37 38 38 39 38 37 38 38 38 38 39 39 40 40 39 39 40 40 39 39 40 40 40 40
27 27 27 26 27 27 28 28 27 27 27 27 28 29 30 31 33 33 34 34 35 35 36 36 36 38 38 38 39 39 39 39 40 40 40 40 40 40 41 40 41 41 41 41 41 41 42 41 41
27 27 26 26 26 28 29 28 28 28 29 29 29 30 31 32 33 34 34 34 35 35 36 36 36 37 39 39 40 41 41 41 41 42 41 41 41 41 41 41 42 42 42 43 43 43 43 43 43
27 27 27 27 28 29 29 29 28 29 30 30 30 31 32 33 33 34 34 34 35 35 35 36 37 37 39 40 40 41 42 42 43 43 43 42 42 43 43 42 42 43 44 45 45 45 45 45 44
28 28 27 27 28 29 29 28 29 29 30 31 31 32 32 33 34 33 34 35 35 36 36 36 37 38 38 39 40 41 42 43 43 43 44 44 44 44 44 44 44 45 45 45 46 46 46 46 46
28 29 28 28 28 29 30 29 28 29 30 31 32 32 33 34 35 35 35 35 36 37 37 38 38 39 39 40 41 41 41 42 44 43 44 45 46 45 45 46 47 46 46 47 47 48 48 48 48
29 29 30 29 29 30 31 31 29 30 31 31 31 32 33 35 35 35 36 36 36 36 37 38 38 38 39 40 41 42 42 42 43 44 45 46 47 47 48 48 48 48 47 48 48 48 49 49 50
29 29 30 30 31 31 31 33 30 30 31 31 32 33 33 35 36 36 36 36 36 36 37 38 39 39 39 40 42 42 43 43 44 45 45 46 47 48 49 49 48 48 48 48 48 49 49 49 50
29 29 30 31 32 32 31 33 32 31 32 32 32 33 34 34 36 36 36 36 37 37 37 38 38 39 40 41 41 43 44 44 44 45 45 46 47 48 48 48 48 48 48 48 48 48 49 49 49
29 29 30 31 32 32 31 33 32 32 32 32 32 32 33 34 36 36 36 37 37 37 38 38 38 39 40 41 41 42 43 44 45 46 46 46 47 47 49 49 49 48 49 49 48 49 49 48 48
28 29 30 33 33 33 33 33 32 32 32 32 33 33 33 35 36 36 36 36 36 37 38 38 39 39 39 40 40 41 42 43 44 44 46 46 46 47 47 47 48 49 49 49 49 50 50 49 48
29 29 30 33 34 35 34 34 32 32 32 32 33 33 33 33 34 34 34 35 35 36 36 37 38 38 39 39 40 40 41 42 43 43 44 45 46 46 47 47 48 49 49 50 51 50 50 49 49
30 30 31 32 34 36 35 34 33 33 33 33 34 33 33 32 33 34 34 34 35 35 36 37 37 38 38 39 40 41 41 41 41 41 42 43 44 45 46 47 48 49 50 50 50 49 48 48 48
29 30 31 32 33 35 36 34 33 33 33 33 34 33 33 33 33 33 33 34 34 35 35 36 36 37 37 38 39 40 40 40 41 41 42 43 43 44 45 46 47 48 48 48 47 47 46 46 46
30 29 30 32 33 34 35 34 33 33 33 33 33 33 34 33 33 33 33 33 34 34 34 34 35 36 37 38 39 39 39 39 40 41 41 42 43 43 44 45 45 46 46 46 46 46 46 46 45
Wind_Direction
257 257 257 256 256 257 259 261 262 261 259 258 256 255 255 255 255 254 252 250 249 249 248 247 247 247 246 247 247 247 248 247 248 249 250 252 255 256 254 253 252 251 252 253 254 256 257 259 260
257 257 257 257 257 259 261 263 263 263 263 261 259 258 257 256 256 255 253 251 250 249 248 246 245 248 247 248 248 248 247 247 248 250 250 251 254 256 255 252 251 252 253 253 254 256 258 261 263
258 257 257 258 259 260 262 262 262 263 262 261 260 259 258 257 256 256 254 251 248 248 247 246 245 246 248 248 249 250 249 248 248 249 251 252 254 255 255 255 253 251 252 253 255 256 258 260 261
261 259 258 259 261 261 262 262 263 262 261 260 259 257 257 256 255 254 254 251 249 248 246 247 247 246 248 249 250 250 250 249 249 249 250 251 253 254 254 254 253 252 253 254 256 258 258 259 260
264 262 261 261 262 262 262 262 262 260 259 259 259 257 256 255 254 254 253 251 250 249 249 249 248 247 249 250 250 250 251 251 250 251 251 252 253 253 254 254 254 254 254 254 255 258 260 261 261
265 263 263 264 264 264 262 261 260 258 257 258 258 257 255 254 253 252 252 251 250 249 249 248 249 249 251 252 252 252 251 251 251 252 253 254 254 253 254 254 255 255 254 256 256 257 260 262 263
266 265 265 265 266 265 264 262 260 260 258 257 257 256 255 253 253 252 252 251 250 250 250 250 250 250 250 251 252 253 253 252 252 253 254 255 254 255 255 256 256 256 255 257 258 259 260 261 263
266 267 266 267 266 265 262 261 260 258 257 256 256 255 255 254 253 252 251 251 250 251 251 251 251 250 250 251 253 253 253 253 252 253 254 256 256 255 255 256 257 257 258 258 259 259 260 262 262
268 267 267 267 265 264 262 260 259 259 258 257 256 255 254 253 253 251 250 250 251 252 252 253 251 251 252 252 253 254 254 253 253 254 255 255 256 256 256 256 257 257 259 260 261 260 260 261 262
267 266 267 266 265 264 263 262 260 259 258 257 256 255 254 253 253 252 252 252 252 253 254 254 254 255 254 253 253 253 254 253 253 254 255 255 256 256 256 256 258 259 260 261 262 261 261 261 262
268 268 268 267 266 265 263 262 261 260 258 257 256 255 254 253 253 253 253 254 255 255 255 255 256 256 255 254 254 255 255 255 254 255 255 254 255 256 256 257 258 260 260 261 262 263 263 263 263
271 270 269 268 267 265 264 262 262 261 259 257 255 255 255 254 253 254 254 255 256 256 257 257 256 256 256 255 255 255 256 256 256 255 255 255 255 256 256 257 258 260 261 261 262 263 263 264 265
272 271 270 269 267 266 263 263 262 261 259 257 256 256 256 255 254 254 254 255 256 257 259 259 257 255 255 255 256 255 255 255 255 255 256 255 255 257 257 257 258 260 261 262 262 264 264 265 265
274 273 271 270 267 266 264 263 263 261 260 258 258 258 257 256 256 255 255 256 257 259 261 259 257 255 255 256 257 256 255 255 256 255 256 256 256 257 257 257 258 260 261 262 263 264 265 266 266
274 273 271 270 268 266 265 263 262 262 262 261 259 259 258 258 257 256 257 258 258 259 261 260 257 256 256 256 257 257 255 255 256 256 257 257 257 258 258 258 259 260 262 263 264 264 266 266 266
275 274 274 272 270 266 265 263 262 263 262 262 260 259 259 259 259 258 258 259 259 260 261 261 260 258 257 257 258 257 257 256 256 256 257 258 258 259 259 260 260 262 262 263 264 265 266 266 267
276 275 275 272 269 266 264 263 262 262 262 262 262 261 260 259 260 260 260 261 261 261 261 261 260 258 257 258 258 257 256 256 256 256 257 258 258 259 261 261 261 262 262 263 265 266 267 267 267
276 276 276 274 271 268 265 264 263 263 263 264 264 263 263 262 261 262 261 263 262 263 262 262 261 259 257 257 257 256 256 256 256 256 257 257 258 260 261 261 261 262 263 264 265 266 266 267 267
277 277 277 275 273 270 267 265 264 264 265 265 266 266 265 264 263 262 261 263 263 264 263 263 263 261 259 258 257 257 256 257 257 257 257 258 258 260 262 262 262 263 264 265 265 266 266 267 268
276 276 277 276 274 272 269 266 266 266 267 267 267 268 267 265 263 262 263 265 264 264 265 264 263 262 261 259 258 258 257 257 257 258 258 258 260 261 263 263 264 264 265 265 265 265 266 267 268
274 275 275 275 274 273 271 268 267 268 268 268 269 270 269 267 263 262 264 266 265 265 266 265 263 263 262 261 259 258 258 259 258 259 260 259 260 262 263 265 265 265 265 265 265 266 266 267 268
275 275 274 272 273 274 273 272 268 269 270 271 271 270 270 268 265 264 265 266 267 267 267 266 264 263 263 262 261 260 260 260 260 260 260 261 261 262 264 265 266 266 266 266 267 268 267 267 267
275 275 274 272 273 274 274 274 273 273 273 273 272 272 270 269 267 265 266 267 267 267 267 267 264 263 263 263 261 261 261 262 261 261 261 262 262 263 263 264 264 265 265 266 267 267 268 267 268
275 275 274 272 273 274 275 276 275 276 277 276 275 273 272 270 268 268 268 268 268 268 269 268 265 264 263 262 261 261 262 262 262 261 262 263 263 264 264 264 264 265 266 268 268 268 269 269 269
274 274 275 275 274 275 277 277 278 280 280 279 277 277 275 272 270 269 269 270 269 269 269 269 268 266 264 263 262 262 262 263 263 262 262 264 265 265 266 265 265 266 267 268 269 268 269 270 271
274 273 275 278 279 279 279 280 281 283 284 282 281 280 278 275 273 271 270 271 271 271 270 270 269 268 266 265 264 264 264 263 263 263 263 265 265 265 265 265 266 266 267 268 269 269 269 270 270
275 274 276 279 280 281 280 281 282 283 285 285 283 280 279 277 275 273 272 272 272 272 271 271 269 268 267 266 266 266 265 265 265 265 265 265 266 266 266 266 267 267 268 268 268 269 269 269 269
276 277 278 278 281 283 283 284 285 285 286 285 283 281 280 279 277 275 273 272 272 272 272 272 270 269 267 266 267 266 266 266 267 266 266 266 267 267 267 268 268 268 268 269 269 270 269 269 269
277 277 277 278 279 282 284 286 287 286 285 284 283 282 282 281 280 277 275 273 272 272 272 271 271 270 269 268 268 267 266 266 266 266 266 266 267 267 267 268 269 269 269 269 269 269 269 269 269
277 278 278 278 279 281 284 287 287 286 284 284 283 282 282 283 282 280 278 276 275 273 272 272 272 271 270 269 268 268 268 267 267 267 267 267 267 268 268 268 269 269 269 269 268 268 269 268 268
Height
5797 5797 5798 5799 5801 5801 5802 5804 5805 5806 5807 5808 5809 5809 5811 5812 5814 5818 5818 5818 5819 5820 5822 5823 5824 5825 5827 5828 5830 5831 5832 5833 5834 5835 5836 5837 5838 5839 5840 5841 5842 5843 5845 5846 5847 5848 5849 5850 5850
5793 5794 5795 5796 5796 5797 5799 5800 5801 5802 5803 5804 5805 5806 5807 5808 5809 5811 5812 5813 5815 5816 5818 5819 5820 5822 5823 5824 5826 5827 5829 5830 5831 5832 5833 5834 5835 5836 5837 5838 5840 5841 5842 5843 5844 5845 5846 5847 5848
5789 5790 5791 5791 5792 5794 5795 5796 5797 5798 5798 5799 5800 5801 5802 5804 5805 5806 5807 5809 5810 5812 5813 5815 5816 5818 5819 5821 5822 5824 5825 5826 5827 5829 5830 5831 5832 5833 5834 5835 5836 5838 5839 5840 5841 5842 5843 5844 5845
5785 5786 5787 5788 5788 5790 5791 5791 5792 5793 5793 5794 5795 5797 5798 5800 5801 5802 5803 5804 5806 5807 5809 5810 5812 5814 5815 5817 5818 5820 5821 5822 5824 5825 5826 5827 5828 5829 5830 5831 5833 5834 5835 5836 5837 5838 5840 5841 5842
5781 5781 5782 5782 5784 5785 5785 5786 5786 5787 5788 5789 5790 5791 5793 5795 5796 5797 5798 5800 5801 5803 5804 5806 5808 5809 5811 5812 5814 5815 5817 5818 5819 5820 5822 5823 5824 5825 5826 5827 5829 5830 5831 5832 5834 5835 5836 5837 5838
5776 5776 5777 5778 5779 5780 5780 5780 5780 5781 5782 5783 5784 5785 5788 5789 5791 5792 5793 5795 5797 5798 5800 5801 5803 5804 5806 5807 5808 5810 5811 5813 5814 5816 5817 5818 5819 5820 5822 5823 5824 5826 5827 5828 5829 5831 5832 5833 5834
5772 5771 5771 5772 5773 5774 5775 5774 5774 5775 5776 5777 5778 5779 5782 5784 5785 5787 5788 5790 5792 5793 5795 5796 5798 5799 5800 5802 5803 5804 5806 5808 5809 5810 5812 5813 5814 5815 5817 5818 5819 5821 5822 5823 5824 5826 5827 5828 5829
5765 5766 5765 5766 5767 5768 5768 5768 5768 5768 5769 5771 5771 5773 5775 5778 5779 5781 5783 5784 5786 5788 5789 5790 5792 5793 5794 5796 5797 5798 5800 5802 5803 5805 5806 5808 5809 5810 5812 5813 5814 5815 5816 5818 5819 5820 5821 5823 5824
5759 5760 5760 5761 5761 5762 5762 5762 5762 5762 5763 5764 5765 5767 5769 5771 5772 5775 5777 5779 5780 5781 5783 5784 5785 5787 5788 5789 5791 5792 5794 5795 5797 5799 5800 5802 5803 5805 5806 5807 5809 5810 5811 5812 5813 5815 5816 5817 5818
5753 5754 5755 5756 5755 5755 5755 5755 5756 5756 5757 5758 5759 5760 5762 5764 5766 5768 5770 5772 5774 5775 5776 5777 5779 5780 5781 5782 5784 5786 5787 5789 5790 5792 5794 5796 5797 5798 5800 5801 5803 5804 5805 5806 5807 5808 5810 5811 5812
5747 5748 5749 5749 5749 5749 5749 5749 5749 5750 5751 5752 5753 5755 5756 5757 5760 5762 5764 5765 5767 5768 5769 5770 5772 5773 5774 5775 5777 5778 5780 5781 5783 5785 5787 5789 5790 5792 5793 5795 5796 5797 5799 5800 5801 5802 5803 5804 5805
5741 5742 5742 5742 5742 5742 5742 5742 5742 5743 5745 5746 5747 5748 5749 5751 5753 5755 5757 5758 5760 5761 5762 5763 5764 5765 5766 5768 5769 5771 5772 5774 5775 5777 5779 5781 5783 5785 5787 5788 5789 5791 5792 5793 5794 5795 5796 5797 5798
5735 5735 5735 5735 5735 5735 5735 5735 5736 5737 5739 5739 5740 5741 5743 5744 5746 5748 5749 5751 5752 5753 5754 5755 5756 5757 5758 5760 5761 5762 5764 5766 5767 5769 5771 5773 5775 5777 5779 5780 5782 5783 5785 5786 5787 5788 5789 5789 5790
5729 5729 5728 5728 5728 5728 5728 5728 5729 5731 5732 5733 5734 5735 5736 5737 5739 5741 5742 5743 5744 5745 5746 5746 5747 5748 5750 5751 5752 5754 5756 5758 5759 5761 5763 5765 5767 5769 5771 5772 5774 5775 5777 5778 5779 5780 5781 5781 5782
5722 5722 5722 5722 5721 5721 5721 5722 5723 5724 5725 5726 5727 5728 5729 5730 5731 5733 5735 5736 5736 5737 5737 5737 5738 5739 5741 5742 5744 5745 5748 5749 5751 5753 5755 5757 5758 5760 5762 5764 5765 5767 5768 5770 5771 5772 5772 5773 5774
5715 5715 5715 5716 5714 5714 5715 5715 5717 5717 5718 5719 5720 5721 5722 5723 5724 5725 5726 5727 5728 5728 5729 5729 5729 5730 5732 5733 5735 5737 5739 5741 5743 5745 5746 5748 5750 5751 5753 5755 5756 5758 5759 5761 5762 5763 5763 5764 5765
5709 5708 5708 5708 5708 5707 5707 5708 5710 5710 5711 5712 5712 5713 5714 5715 5716 5717 5718 5719 5719 5719 5720 5720 5721 5721 5723 5724 5726 5727 5729 5731 5733 5735 5737 5739 5741 5742 5744 5745 5747 5748 5750 5751 5752 5753 5754 5755 5755
5703 5702 5701 5701 5701 5700 5700 5702 5703 5703 5704 5705 5705 5706 5707 5707 5708 5708 5709 5710 5710 5710 5710 5711 5711 5712 5713 5714 5716 5718 5720 5722 5724 5726 5728 5729 5731 5733 5734 5736 5737 5738 5740 5741 5742 5743 5744 5744 5745
5696 5695 5695 5695 5694 5693 5694 5695 5696 5696 5697 5698 5698 5699 5699 5699 5700 5700 5700 5701 5701 5701 5701 5701 5702 5703 5703 5705 5706 5708 5710 5712 5714 5716 5718 5720 5722 5723 5724 5726 5727 5728 5729 5730 5731 5732 5733 5734 5734
5689 5688 5688 5688 5687 5686 5687 5688 5689 5690 5690 5691 5691 5691 5691 5691 5691 5691 5691 5692 5692 5692 5692 5692 5692 5693 5694 5695 5696 5698 5700 5702 5704 5706 5708 5709 5711 5713 5714 5715 5716 5717 5718 5719 5720 5721 5722 5722 5723
5682 5682 5682 5681 5680 5679 5680 5682 5683 5683 5683 5683 5683 5683 5682 5682 5682 5683 5683 5683 5683 5683 5683 5683 5683 5684 5684 5685 5686 5688 5690 5692 5694 5696 5697 5699 5700 5701 5703 5704 5705 5706 5707 5708 5708 5709 5710 5710 5711
5676 5676 5675 5674 5673 5673 5673 5673 5676 5676 5675 5675 5675 5674 5674 5674 5673 5674 5674 5674 5674 5674 5674 5674 5674 5674 5675 5675 5677 5678 5680 5682 5684 5685 5686 5687 5689 5690 5691 5693 5694 5694 5695 5696 5696 5697 5697 5698 5699
5669 5668 5668 5667 5665 5665 5666 5665 5669 5668 5668 5667 5667 5665 5665 5664 5664 5664 5664 5664 5665 5665 5664 5664 5664 5664 5664 5665 5666 5667 5669 5671 5673 5674 5675 5676 5677 5678 5679 5680 5681 5682 5683 5684 5684 5684 5684 5685 5686
5661 5661 5660 5659 5658 5658 5659 5657 5659 5660 5660 5659 5657 5656 5655 5654 5654 5654 5654 5654 5655 5655 5654 5654 5654 5654 5654 5655 5656 5657 5658 5660 5661 5662 5663 5664 5665 5666 5667 5668 5669 5670 5670 5671 5671 5672 5672 5672 5673
5654 5653 5652 5650 5650 5650 5651 5649 5651 5652 5651 5650 5648 5647 5646 5645 5645 5644 5644 5645 5645 5645 5644 5643 5643 5644 5644 5644 5645 5646 5647 5648 5650 5651 5652 5653 5653 5654 5655 5656 5657 5657 5658 5658 5659 5659 5660 5660 5660
5647 5646 5645 5643 5642 5642 5642 5641 5644 5644 5642 5641 5639 5638 5636 5635 5635 5634 5634 5635 5634 5634 5634 5633 5633 5633 5633 5634 5634 5635 5636 5637 5638 5639 5640 5640 5641 5642 5642 5643 5644 5645 5645 5646 5646 5646 5647 5647 5647
5639 5638 5638 5636 5634 5634 5634 5635 5636 5635 5634 5632 5630 5628 5627 5626 5625 5625 5625 5624 5624 5624 5623 5623 5623 5623 5623 5623 5623 5624 5625 5625 5626 5627 5627 5628 5629 5630 5630 5631 5632 5632 5632 5633 5633 5633 5634 5634 5634
5632 5631 5630 5628 5626 5624 5625 5626 5628 5627 5625 5623 5621 5619 5618 5617 5616 5616 5615 5615 5615 5614 5613 5613 5612 5612 5612 5613 5613 5613 5614 5614 5615 5615 5616 5616 5617 5617 5618 5618 5619 5619 5619 5620 5620 5620 5620 5621 5621
5625 5624 5622 5620 5619 5617 5616 5621 5619 5618 5616 5614 5613 5611 5610 5609 5608 5607 5606 5606 5605 5605 5604 5603 5603 5602 5602 5602 5602 5602 5603 5603 5603 5604 5604 5605 5605 5606 5606 5606 5606 5606 5606 5607 5607 5607 5607 5608 5608
5617 5616 5615 5614 5612 5610 5608 5613 5611 5609 5607 5605 5604 5602 5601 5600 5599 5598 5597 5596 5596 5595 5595 5594 5593 5593 5592 5592 5592 5592 5592 5592 5592 5593 5593 5593 5594 5594 5594 5594 5594 5593 5594 5594 5594 5595 5595 5595 5596